Location: Arrodets-la-Barthe
(43.0306°N, 0.2829°E)
Time: 12:37:56
(UTC+00:00)

CSL-04 Rocket - Visible Passes

Search period start: 29 May 2022 00:00
Search period end: 08 June 2022 00:00
Orbit: 806 x 860 km, 98.9° (Epoch: 28 May)

Date Brightness Start Highest point End Pass type
(mag) Time Alt. Az. Time Alt. Az. Time Alt. Az.
29 May 6.1 21:02:51 10° SW 21:06:08 16° W 21:09:27 10° NW visible
30 May 5.8 20:44:45 10° SW 20:48:56 23° W 20:53:12 10° NW visible
31 May 5.3 20:27:03 10° SSW 20:31:48 33° W 20:36:38 10° NNW visible
01 Jun 4.7 20:09:36 10° S 20:14:42 46° W 20:19:55 10° NNW visible
03 Jun 6.3 21:19:50 10° WSW 21:21:42 12° W 21:23:36 10° WNW visible
04 Jun 6.1 21:01:01 10° SW 21:04:28 17° W 21:07:58 10° NW visible
05 Jun 5.7 20:42:59 10° SSW 20:47:17 24° W 20:51:40 10° NW visible
06 Jun 5.2 20:25:19 10° SSW 20:30:09 34° W 20:35:05 10° NNW visible
07 Jun 4.6 20:07:54 10° S 20:13:04 48° W 20:18:21 10° NNW visible
